This is the latest recevied weather packets stored in our database for station/object KA6AKH-13. If no packets are shown the sender has not sent any weather packets the latest 10 day(s).
| Time | Temp. | Humidity | Pressure | Rain* | Wind** | Luminosity | Snow |
|---|---|---|---|---|---|---|---|
| 1777994485 | 23.89° C | 47% | 1012.3 hPa | 0 mm | - | - | - |
| 1777993887 | 23.89° C | 47% | 1012.2 hPa | 0 mm | - | - | - |
| 1777992655 | 23.33° C | 49% | 1012.2 hPa | 0 mm | - | - | - |
| 1777992025 | 22.78° C | 50% | 1012.3 hPa | 0 mm | - | - | - |
| 1777990795 | 22.22° C | 52% | 1012.4 hPa | 0 mm | - | - | - |
| 1777989657 | 21.67° C | 51% | 1012.4 hPa | 0 mm | - | - | - |
| 1777989595 | 21.67° C | 51% | 1012.4 hPa | 0 mm | - | - | - |
| 1777987706 | 20.56° C | 52% | 1012.3 hPa | 0 mm | - | - | - |
| 1777987105 | 20° C | 54% | 1012.3 hPa | 0 mm | - | - | - |
| 1777983985 | 18.33° C | 58% | 1012.5 hPa | 0 mm | - | - | - |
| 1777983385 | 18.33° C | 59% | 1012.4 hPa | 0 mm | - | - | - |
| 1777982785 | 17.78° C | 60% | 1012.3 hPa | 0 mm | - | - | - |
| 1777979726 | 17.22° C | 62% | 1011.9 hPa | 0 mm | - | - | - |
| 1777978525 | 17.22° C | 62% | 1011.7 hPa | 0 mm | - | - | - |
| 1777975435 | 16.67° C | 62% | 1011.4 hPa | 0 mm | - | - | - |
| 1777972915 | 16.67° C | 62% | 1011.1 hPa | 0 mm | - | - | - |
| 1777972430 | 16.67° C | 62% | 1011.1 hPa | 0 mm | - | - | - |
| 1777972315 | 16.67° C | 62% | 1011.1 hPa | 0 mm | - | - | - |
| 1777970425 | 16.67° C | 65% | 1011.1 hPa | 0 mm | - | - | - |
| 1777969901 | 16.67° C | 66% | 1011.1 hPa | 0 mm | - | - | - |
| 1777969825 | 16.67° C | 66% | 1011.1 hPa | 0 mm | - | - | - |
| 1777969195 | 16.67° C | 66% | 1011 hPa | 0 mm | - | - | - |
| 1777967335 | 16.67° C | 65% | 1010.9 hPa | 0 mm | - | - | - |
| 1777966736 | 16.67° C | 65% | 1010.8 hPa | 0 mm | - | - | - |
| 1777965505 | 16.67° C | 65% | 1010.8 hPa | 0 mm | - | - | - |
* Rain latest hour (hover to see other rain measurements)
** Current wind speed in m/s (hover to see current wind gust speed)